Location: Newark
(49.4900°N, 20.6656°E)
Time: 01:27:19
(UTC+00:00)

STARLINK-1751 - Pass Details

Date: 24 September 2020
Orbit: 378 x 380 km, 53.0° (Epoch: 29 October)

Event Time Altitude Azimuth Distance (km) Brightness Sun altitude
Exits shadow 01:29:59 13° 62° (ENE) 1,151 6.1 -27.8°
Drops below altitude 10° 01:30:24 10° 65° (ENE) 1,319 6.5 -27.7°
Sets 01:32:28 0° 72° (ENE) 2,161 7.8 -27.4°
